Notices

What's New in latest Release from April 7th, 2021:

- Updated Glossary, including Speed of Maximum Gust, and Total Hourly Precipitation

- Updated national and regional climate services offices contacts and prices information

- Addition of station inventory lists for 1981-2010, 1971-2000, and 1961-1990 Normals.

If you haven't already, please take our survey and provide feedback about our website: https://eccc.sondage-survey.ca/f/LanguageSelection.aspx?s=442ca660-fcf1-47c0-95a9-59707d6fd709

Hourly Data Report for March 17, 2003

TORONTO CITY
ONTARIO

43°40'00.000" N
79°24'00.000" W
112.50 m
6158355
71508
XTO

Download Data

Hourly Data (March 2003)
Hourly Data Report for March 17, 2003
TIME
LST
Temp Definition
°C
Dew Point Definition
°C
Rel Hum Definition
%
Precip. Amount Definition
mm

Wind Dir Definition
10's deg

Wind Spd Definition
km/h
Visibility Definition
km
Stn Press Definition
kPa
Hmdx Definition


Wind Chill Definition


Weather Definition


00:00
01:00 4.6 2.5 86   LegendMM LegendMM LegendMM 99.56     LegendNANA
02:00 5.0 2.9 86   LegendMM LegendMM LegendMM 99.56     LegendNANA
03:00 5.3 3.2 86   LegendMM LegendMM LegendMM 99.56     LegendNANA
04:00 5.1 3.4 89   LegendMM LegendMM LegendMM 99.53     LegendNANA
05:00 5.1 2.8 85   LegendMM LegendMM LegendMM 99.51     LegendNANA
06:00 4.6 3.0 89   LegendMM LegendMM LegendMM 99.51     LegendNANA
07:00 5.1 3.6 90   LegendMM LegendMM LegendMM 99.54     LegendNANA
08:00 6.1 4.4 89   LegendMM LegendMM LegendMM 99.57     LegendNANA
09:00 8.6 5.5 81   LegendMM LegendMM LegendMM 99.57     LegendNANA
10:00 12.2 6.9 70   LegendMM LegendMM LegendMM 99.56     LegendNANA
11:00 12.8 6.8 67   LegendMM LegendMM LegendMM 99.53     LegendNANA
12:00 14.0 7.3 64   LegendMM LegendMM LegendMM 99.49     LegendNANA
13:00 14.5 7.3 62   LegendMM LegendMM LegendMM 99.43     LegendNANA
14:00 14.9 7.7 62   LegendMM LegendMM LegendMM 99.39     LegendNANA
15:00 14.7 8.2 65   LegendMM LegendMM LegendMM 99.34     LegendNANA
16:00 16.0 9.4 65   LegendMM LegendMM LegendMM 99.35     LegendNANA
17:00 14.8 8.5 66   LegendMM LegendMM LegendMM 99.37     LegendNANA
18:00 14.1 9.1 72   LegendMM LegendMM LegendMM 99.42     LegendNANA
19:00 13.9 8.5 70   LegendMM LegendMM LegendMM 99.50     LegendNANA
20:00 11.7 8.2 79   LegendMM LegendMM LegendMM 99.60     LegendNANA
21:00 11.0 8.2 83   LegendMM LegendMM LegendMM 99.61     LegendNANA
22:00 9.9 7.7 86   LegendMM LegendMM LegendMM 99.65     LegendNANA
23:00 8.6 7.5 93   LegendMM LegendMM LegendMM 99.67     LegendNANA

Notes on Data Quality.

Legend

  • E = Estimated
  • M = Missing
  • NA = Not Available*
  • [empty] = Indicates an unobserved value
Date modified: